Probability
0 0 0 0 0 0 0 0 0 0 0 0 0 0 0 0 0 0 0 0 0 0 0 0 0 0 0 0 0 0 0 0 0 0 0 0 0 0 0 0 0 0 0
0 0 0 0 0 0 0 0 0 0 0 0 0 0 0 0 0 0 0 0 0 0 0 0 0 0 0 0 0 0 0 0 0 0 0 0 0 0 0 0 0 0 0
0 0 0 0 0 0 0 0 0 0 0 0 0 0 0 0 0 0 0 0 0 0 0 0 0 0 0 0 0 0 0 0 0 0 0 0 0 0 0 0 0 0 0
0 0 0 0 0 0 0 0 0 0 0 0 0 0 0 0 0 0 0 0 0 0 0 0 0 0 0 0 0 0 0 0 0 0 0 0 0 0 0 0 0 0 0
0 0 0 0 0 0 0 0 0 0 0 0 0 0 0 0 0 0 0 0 0 0 0 0 0 0 0 0 0 0 0 0 0 0 0 0 0 0 0 0 0 0 0
0 0 0 0 0 0 0 0 0 0 0 0 0 0 0 0 0 0 0 0 0 0 0 0 0 0 0 0 0 0 0 0 0 0 0 0 0 0 0 0 0 0 0
0 0 0 0 0 0 0 0 0 0 0 0 0 0 0 0 0 0 0 0 0 0 0 0 0 0 0 0 0 0 0 0 0 0 0 0 0 0 0 0 0 0 0
0 0 0 0 0 0 0 0 0 0 0 0 0 0 0 0 0 0 0 0 0 0 0 0 0 0 0 0 0 0 0 0 0 0 0 0 0 0 0 0 0 0 0
0 0 0 0 0 0 0 0 0 0 0 0 0 0 0 0 0 0 0 0 0 0 0 0 0 0 0 0 0 0 0 0 0 0 0 0 0 0 0 0 0 0 0
0 0 0 0 0 0 0 0 0 0 0 0 0 0 0 0 0 0 0 0 0 0 0 0 0 0 0 0 0 0 0 0 0 0 0 0 0 0 0 0 0 0 1
0 0 0 0 0 0 0 0 0 0 0 0 0 0 0 0 0 0 0 0 0 0 0 0 0 0 0 0 0 0 0 0 0 0 0 0 0 0 0 0 0 0 1
0 0 0 0 0 0 0 0 0 0 0 0 0 0 0 0 0 0 0 0 0 0 0 0 0 0 0 0 0 0 0 0 0 0 1 2 1 0 0 0 0 0 1
0 0 0 0 0 0 0 0 0 0 0 0 0 0 0 0 0 0 0 0 0 0 0 0 0 0 0 0 0 0 0 0 0 0 1 3 1 0 0 0 0 0 0
0 0 0 0 0 0 0 0 0 0 0 0 0 0 0 0 0 0 0 0 0 0 0 0 0 0 0 0 0 0 0 0 0 0 1 1 1 0 0 0 0 0 0
0 0 0 1 1 0 0 0 0 0 0 0 0 0 0 0 0 0 0 0 0 0 0 0 0 0 0 0 0 0 0 0 0 0 0 0 0 0 0 0 0 0 0
0 0 1 2 3 3 2 0 0 0 0 0 0 0 0 0 0 0 0 0 0 0 0 0 0 0 0 0 0 0 0 0 0 0 0 0 0 0 0 0 0 0 0
1 1 1 3 6 9 9 5 2 0 0 0 0 0 0 0 0 0 0 0 0 0 0 0 0 0 0 0 0 0 0 0 0 0 0 0 0 0 0 0 0 0 0
16 12 6 3 5 13 20 21 20 20 19 12 4 1 0 0 0 0 0 0 0 0 0 0 0 0 0 0 0 0 0 0 0 0 0 0 0 0 0 0 0 0 0
44 33 17 6 4 12 29 44 52 58 57 42 23 9 2 0 0 0 0 0 0 0 0 0 0 0 0 0 0 0 0 0 0 0 0 0 0 0 0 0 0 0 0
67 51 31 19 16 23 42 64 78 83 80 67 44 21 6 1 1 0 0 0 0 0 0 0 0 0 0 0 0 0 0 0 0 0 0 0 0 0 0 0 0 0 0
77 63 49 44 44 51 65 79 89 89 82 68 49 29 14 5 2 1 0 0 0 0 0 0 0 0 0 0 0 0 0 0 0 0 0 0 0 0 0 0 0 0 0
81 71 62 63 69 74 80 88 93 91 81 65 48 34 21 9 4 3 1 0 0 0 0 0 0 1 0 0 0 0 0 0 0 0 0 0 0 0 0 0 0 0 0
70 64 58 64 71 74 78 82 86 83 75 64 52 37 21 11 9 8 4 1 1 1 2 1 1 1 1 0 0 0 0 0 0 0 0 0 0 0 0 0 0 0 0
41 40 39 42 47 50 53 55 57 54 52 54 51 38 23 17 17 16 11 5 3 4 5 3 2 1 2 2 2 2 3 2 1 0 0 0 0 0 0 0 0 0 0
14 14 14 15 16 17 19 21 21 19 22 32 42 44 38 31 29 25 19 13 10 9 8 5 3 2 2 4 4 5 7 7 3 0 0 0 0 0 0 0 0 0 0
2 1 1 1 1 1 2 3 3 3 7 17 35 51 52 44 39 31 25 21 17 15 10 5 2 1 2 3 4 5 10 10 5 1 0 0 0 0 0 0 0 0 0
Wind_Speed
10 13 17 12 11 10 11 11 12 15 17 17 15 13 11 11 10 9 9 8 8 8 9 10 9 9 8 8 9 10 12 11 11 11 10 9 10 10 9 7 7 11 10
12 14 16 13 11 11 11 11 11 12 16 16 15 13 12 11 10 9 8 8 8 8 8 8 8 8 8 8 10 11 11 11 10 10 9 9 9 8 7 6 8 9 8
13 14 15 13 12 11 10 10 10 12 14 15 13 13 12 11 10 10 9 8 7 7 7 7 7 8 8 8 9 10 9 9 9 9 8 7 9 7 7 7 8 8 8
13 13 13 15 13 11 11 10 10 11 12 13 12 12 11 10 9 8 8 8 7 7 6 6 6 8 9 9 9 9 9 8 9 8 9 5 7 10 7 7 7 6 7
12 12 14 15 13 12 11 11 10 11 11 11 11 10 10 9 8 8 8 8 7 6 6 6 5 7 8 8 8 8 8 8 8 10 5 3 4 12 9 8 7 7 6
12 11 14 13 13 12 10 10 10 10 10 10 10 9 9 8 8 7 7 7 6 6 5 5 5 5 6 7 7 7 8 8 10 9 6 6 6 12 10 9 9 8 7
12 11 14 12 12 11 9 8 9 10 9 9 8 7 7 6 6 6 6 6 5 5 5 4 5 5 5 5 6 6 7 8 10 5 6 7 5 12 10 11 10 9 9
11 11 13 12 11 12 10 9 8 8 8 8 7 6 5 4 4 4 5 5 4 3 3 3 4 5 5 5 5 5 5 8 9 7 7 8 7 8 10 11 12 12 11
11 10 11 12 11 11 9 9 8 8 8 7 6 6 6 6 6 5 5 5 5 5 5 5 5 5 6 6 6 7 7 8 11 6 7 5 9 8 10 11 12 13 13
10 10 10 10 10 10 10 9 8 8 8 8 8 8 7 7 7 7 7 7 5 6 7 7 7 7 6 6 7 8 8 9 13 11 6 4 6 7 11 12 13 14 15
11 10 10 10 9 9 8 10 9 8 7 7 9 10 9 9 9 9 8 6 5 7 8 8 9 9 8 10 11 10 9 9 11 8 6 4 5 6 9 10 12 15 16
13 11 9 10 9 9 7 7 7 8 8 8 6 7 8 6 4 6 8 5 7 8 9 10 9 10 11 10 13 14 9 10 10 7 5 6 5 10 12 11 11 13 15
12 12 10 9 8 8 6 6 5 5 5 7 7 7 5 4 5 6 4 7 8 9 8 8 10 8 7 5 5 6 7 7 6 6 5 7 7 11 13 14 13 13 14
12 12 11 10 9 8 7 6 6 6 5 6 7 9 7 5 5 5 3 4 4 5 4 4 3 5 5 6 7 7 7 6 6 4 2 3 7 10 12 13 13 14 15
12 12 11 11 10 9 7 6 7 7 6 7 6 8 7 6 6 5 4 3 6 5 4 5 4 4 5 6 6 6 6 6 7 6 4 6 8 8 10 12 13 15 16
13 13 12 12 11 9 8 8 7 7 6 7 7 8 9 7 6 5 5 5 6 5 5 5 5 5 5 5 6 5 6 7 6 6 6 5 10 8 7 9 12 14 16
12 11 12 11 11 11 11 10 8 7 7 7 7 7 8 9 7 6 6 6 5 6 6 5 6 5 5 5 5 5 5 6 6 5 6 5 4 7 8 8 11 14 15
10 10 11 10 12 12 11 9 7 7 7 6 7 7 8 9 9 7 7 7 5 6 5 4 5 5 4 4 3 3 4 4 5 5 6 5 5 6 5 6 8 12 13
10 10 11 11 12 11 10 8 7 5 5 6 7 7 7 10 10 9 7 6 7 6 4 5 3 5 4 4 4 3 4 4 4 6 6 6 5 6 7 3 8 10 10
9 10 11 11 11 9 7 6 5 3 1 3 7 9 10 9 11 9 8 8 9 6 5 5 4 5 5 5 5 4 5 4 4 3 5 4 4 6 6 7 6 4 6
9 10 10 10 9 7 6 6 6 6 4 4 5 11 13 14 13 9 9 7 8 7 7 7 5 5 5 5 6 5 4 4 2 3 3 3 4 4 5 5 5 6 5
7 6 6 6 6 8 7 7 7 6 6 8 10 12 14 15 14 11 11 9 9 7 8 7 5 5 5 5 6 7 5 3 5 3 2 2 3 3 3 4 6 6 8
5 4 1 1 3 5 7 6 5 6 7 9 12 12 15 16 15 12 12 11 9 9 7 7 7 8 6 5 5 6 5 3 4 3 2 2 2 4 4 4 5 6 8
4 2 3 3 4 5 6 6 7 8 10 14 13 13 14 15 13 12 12 11 10 8 8 9 9 6 6 6 5 6 7 5 6 4 4 4 4 5 4 5 5 5 7
4 3 2 2 3 4 4 5 7 9 10 11 13 14 13 10 10 10 10 8 8 8 8 8 7 7 6 6 6 6 6 5 8 8 7 5 4 3 2 4 3 5 6
6 5 5 6 5 4 4 5 7 10 12 14 15 12 8 4 2 4 7 6 7 7 7 7 7 8 6 6 6 6 6 6 6 7 8 8 6 3 3 2 3 4 4
Wind_Direction
154 138 136 148 149 143 132 122 127 147 149 149 152 153 150 142 135 124 116 108 104 113 122 119 115 114 116 119 134 131 121 120 120 117 114 108 102 99 100 111 120 98 96
147 137 140 149 150 146 136 127 121 132 150 150 153 154 150 143 137 128 123 115 108 114 127 129 124 113 106 105 113 125 128 130 131 124 128 128 115 106 102 73 43 91 107
146 139 148 149 148 144 136 130 123 121 137 149 150 150 150 148 146 141 134 122 113 114 125 135 138 127 116 113 115 123 132 138 139 137 184 167 127 127 123 110 101 113 117
149 148 150 144 147 144 141 137 132 129 132 140 145 148 151 153 153 148 138 127 121 119 128 137 142 144 135 132 131 135 142 152 153 169 207 154 145 136 145 137 135 136 136
150 150 136 149 148 146 144 144 141 138 139 140 145 151 157 160 159 151 136 134 131 123 122 136 135 147 145 142 142 146 151 159 166 215 190 187 162 142 162 163 163 163 161
153 154 137 155 149 148 146 146 148 144 143 144 149 155 160 165 164 157 147 144 143 137 129 133 141 150 155 150 154 162 166 173 197 211 187 205 173 155 176 183 184 182 181
156 150 138 155 151 149 151 149 147 149 151 150 150 154 162 168 167 160 154 148 146 143 145 150 155 159 163 160 165 176 184 195 238 215 204 215 175 156 188 195 197 196 195
156 153 137 151 156 155 161 165 163 160 160 162 164 169 179 181 180 176 170 159 154 154 169 184 185 171 168 173 186 205 215 242 240 238 227 222 153 169 209 210 205 204 204
162 154 151 160 163 162 165 171 176 178 178 180 185 189 199 206 205 201 195 188 191 201 210 216 214 203 193 196 206 220 234 254 272 251 249 245 146 191 223 228 219 211 209
166 161 164 162 164 169 172 174 182 183 187 192 200 205 208 217 221 219 218 195 212 216 219 225 227 226 221 221 225 227 234 244 247 247 229 221 143 214 232 234 230 224 219
175 172 173 165 168 173 180 160 176 180 187 198 200 200 210 224 219 205 215 156 214 229 231 233 234 235 236 226 231 235 237 245 251 259 245 146 151 240 254 249 240 233 227
180 178 182 173 174 179 190 167 199 199 185 215 211 203 215 226 257 263 122 174 226 236 237 234 239 238 238 234 209 209 232 232 257 257 247 147 208 248 257 257 252 245 239
182 183 182 176 185 189 193 194 205 213 195 211 217 221 240 252 230 237 217 189 210 222 228 208 218 234 239 259 280 242 254 257 239 243 229 161 229 253 261 260 255 251 247
186 189 184 182 185 200 212 206 214 219 208 218 203 218 216 220 241 241 239 236 216 216 213 227 210 220 250 253 251 262 266 262 277 295 306 174 249 262 266 264 262 259 256
187 191 188 191 192 199 217 236 227 232 224 219 225 213 228 226 225 231 239 252 252 241 216 224 241 254 267 267 267 260 265 268 271 270 272 231 244 259 270 273 274 272 269
192 193 192 196 197 202 214 227 238 240 231 248 231 224 219 233 238 242 234 238 252 265 272 274 262 258 267 271 265 264 269 279 273 285 286 245 212 221 261 283 290 289 283
196 194 195 198 201 205 217 226 235 242 238 242 244 233 228 236 238 250 256 249 252 255 253 258 272 268 258 260 271 278 275 280 291 296 298 305 272 204 215 258 290 294 288
198 196 198 204 203 209 219 230 244 255 258 253 253 241 232 244 248 254 257 254 252 253 253 247 250 264 273 281 278 278 277 270 267 275 281 284 293 303 257 217 271 287 290
194 192 198 209 210 213 220 225 241 265 293 289 274 261 244 244 249 253 265 272 266 257 251 256 243 270 282 294 274 237 250 249 256 263 290 290 291 297 305 266 238 257 282
183 191 199 205 213 217 224 229 231 237 270 310 302 291 275 257 251 258 261 260 264 255 246 248 259 253 280 284 289 287 262 270 269 282 282 278 284 306 319 332 307 267 250
177 188 198 207 205 211 217 220 217 217 207 208 251 275 274 265 257 251 258 254 253 251 251 252 245 252 256 273 274 263 250 232 238 266 268 304 323 327 324 326 325 329 302
157 171 190 206 216 226 232 232 229 222 219 218 214 227 243 251 246 237 239 248 246 253 253 258 253 260 261 253 280 290 279 221 186 221 238 252 304 310 317 334 335 323 316
132 148 139 339 302 290 287 268 254 239 238 228 226 224 227 232 233 232 234 242 250 252 254 252 250 249 255 261 264 284 293 306 318 209 194 235 263 294 294 328 320 328 321
97 84 62 24 342 327 311 289 269 251 244 240 234 229 228 230 232 232 235 237 247 255 255 252 244 241 244 249 248 253 268 302 292 282 228 196 210 248 283 297 314 328 333
135 135 143 218 266 291 297 291 288 273 263 257 247 233 228 230 235 240 242 242 244 248 248 251 260 246 235 239 245 250 243 235 246 269 278 280 264 271 314 304 326 336 338
145 169 203 230 251 275 289 289 286 286 282 265 245 226 213 205 220 258 262 252 247 243 243 247 254 248 242 243 249 255 254 254 253 257 265 264 269 280 334 335 319 348 351